Regional Weather Roundup
Issued by NWS

Home | Current Version | Previous Version | Graphics & Text | Print | Product List | Glossary On
Versions: 1 2 3 4 5 6 7 8 9 10 11 12 13 14 15 16 17 18 19 20 21 22 23 24 25 26 27 28 29 30 31 32 33 34 35 36 37 38 39 40 41 42 43 44 45 46 47 48 49 50
827
ASUS45 KCYS 270010
RWRWY

WYOMING REGIONAL WEATHER ROUNDUP
NATIONAL WEATHER SERVICE CHEYENNE WY
600 PM MDT FRI AUG 26 2016

NOTE:  "FAIR" INDICATES FEW OR NO CLOUDS BELOW 12,000 FEET
WITH NO SIGNIFICANT WEATHER AND/OR OBSTRUCTIONS TO VISIBILITY.

WYZ001-270100-
YELLOWSTONE NATIONAL PARK

CITY           SKY/WX    TMP DP  RH WIND       PRES   REMARKS
LK YELLOWSTONE   N/A     62  26  25 MISG      30.16S
6HR MIN TEMP:  48; 6HR MAX TEMP:  64; 6HR PCP:  0.02;

W YELLOWSTONE  NOT AVBL

$$
WYZ002>013-054>058-071-098>099-270100-
NORTHERN WYOMING

CITY           SKY/WX    TMP DP  RH WIND       PRES   REMARKS
JACKSON        SUNNY     72  19  14 SW16      30.07S
CODY           FAIR      61  46  59 N7        30.05F
GREYBULL       FAIR      69  39  33 N8        29.99F
6HR MIN TEMP:  67; 6HR MAX TEMP:  73; 6HR PCP: TRACE;

WORLAND        FAIR      72  38  29 N5        30.00S
6HR MIN TEMP:  65; 6HR MAX TEMP:  73;

SHERIDAN       FAIR      70  44  39 NW3       30.00F
6HR MIN TEMP:  68; 6HR MAX TEMP:  74;

BUFFALO        FAIR      71  38  29 N6        30.04F
6HR MIN TEMP:  63; 6HR MAX TEMP:  72;

GILLETTE       FAIR      69  42  37 N13       30.00F
6HR MIN TEMP:  66; 6HR MAX TEMP:  74;

HULETT         FAIR      59  50  72 E9        30.07R
NEWCASTLE      FAIR      68  45  42 S7        30.02F

$$
WYZ014>020-022>026-101>103-270100-
CENTRAL WYOMING

CITY           SKY/WX    TMP DP  RH WIND       PRES   REMARKS
BIG PINEY      FAIR      67  33  28 E12       30.12S
6HR MIN TEMP:  59; 6HR MAX TEMP:  72; 6HR PCP: TRACE;

PINEDALE       FAIR      61  32  33 E7        30.14F
DUBOIS         FAIR      63  32  31 E6        30.10S
LANDER         FAIR      67  44  43 NE3       30.03F
6HR MIN TEMP:  62; 6HR MAX TEMP:  70; 6HR PCP: TRACE;

RIVERTON       FAIR      67  39  35 NE9       30.04F
6HR MIN TEMP:  61; 6HR MAX TEMP:  72;

CASPER         PTSUNNY   64  47  53 NE8       30.03S
6HR MIN TEMP:  63; 6HR MAX TEMP:  74; 6HR PCP:  0.07;

DOUGLAS        FAIR      75  35  23 NW12      30.01F
6HR MIN TEMP:  65; 6HR MAX TEMP:  77;


$$
WYZ021-027>030-104>119-270100-
SOUTHERN WYOMING

CITY           SKY/WX    TMP DP  RH WIND       PRES   REMARKS
EVANSTON       FAIR      68  31  25 W21G28    30.14R
6HR MIN TEMP:  68; 6HR MAX TEMP:  75;

FORT BRIDGER   MOCLDY    72  26  17 NW18G25   30.14R
ROCK SPRINGS   FAIR      63  38  39 SW10      30.13F
6HR MIN TEMP:  56; 6HR MAX TEMP:  75; 6HR PCP: TRACE;

DIXON          FAIR      62  37  38 E7G20     30.17F
RAWLINS        FAIR      61  35  37 S16G26    30.13F
6HR MIN TEMP:  61; 6HR MAX TEMP:  75;

SARATOGA       FAIR      61  34  36 NW7       30.16F
LARAMIE        FAIR      68  25  19 NW13      30.13S
6HR MIN TEMP:  57; 6HR MAX TEMP:  72; 6HR PCP:  0.02;

CHEYENNE       FAIR      64  44  48 E13       30.11S
6HR MIN TEMP:  57; 6HR MAX TEMP:  75; 6HR PCP:  0.18;

TORRINGTON     FAIR      65  54  67 SE15      30.02F
6HR MIN TEMP:  65; 6HR MAX TEMP:  77; 6HR PCP: TRACE;

PINE BLUFFS    FAIR      63  52  67 NE7       30.10R

$$




USA.gov is the U.S. government's official web portal to all federal, state and local government web resources and services.